Cumberland, WI

8:24 PM CST on December 09, 2019 (GMT -0600)
Cumberland Municipal

Weather History for KUBE - October, 2019

Change the Weather History Date:

Sunday, October 13, 2019

  Actual Average (WUND) Record (WUND)
Temperature  
Mean Temperature 36 °F -  
Max Temperature 41 °F - - (-1)
Min Temperature 32 °F - - (-1)
Degree Days  
Heating Degree Days 28    
Moisture  
Dew Point 31 °F    
Average Humidity 85    
Maximum Humidity 100    
Minimum Humidity 61    
Precipitation  
Precipitation 0.00 in - - ()
Sea Level Pressure  
Sea Level Pressure 29.71 in    
Wind  
Wind Speed 9 mph (West)    
Max Wind Speed 15 mph    
Max Gust Speed 22 mph    
Visibility 10 miles    
Events Snow    
Averages and records for this station are not official NWS values.
T = Trace of Precipitation, MM = Missing Value Source: NWS Daily Summary

Daily Weather History Graph

Daily Weather History Graph

Search for Another Location

Airport or City:

Astronomy

Oct. 13, 2019 Rise Set
Actual Time 7:21 AM CDT 6:26 PM CDT
Civil Twilight 6:51 AM CDT 6:56 PM CDT
Nautical Twilight 6:17 AM CDT 7:30 PM CDT
Astronomical Twilight 5:42 AM CDT 8:04 PM CDT
Moon 6:51 PM CDT (10/13) 6:51 AM CDT (10/13)
Length of Visible Light 12h 04m
Length of Day
11h 04m
Full, 100% of the Moon is Illuminated
Oct 13
Full
Oct 13
Full
Oct 21
Last Quarter
Oct 27
New
Nov 4
First Quarter

Hourly Weather History & Observations

Time (CDT) Temp. Windchill Dew Point Humidity Pressure Visibility Wind Dir Wind Speed Gust Speed Precip Events Conditions
12:55 AM 32.0 °F 24.8 °F 32.0 °F 100% 29.58 in 10.0 mi WSW 8.1 mph - N/A   Overcast
1:15 AM 32.0 °F 24.2 °F 32.0 °F 100% 29.59 in 10.0 mi SW 9.2 mph - N/A   Overcast
1:35 AM 32.0 °F 24.2 °F 32.0 °F 100% 29.59 in 10.0 mi WSW 9.2 mph - N/A   Overcast
1:55 AM 32.0 °F 24.2 °F 30.2 °F 93% 29.59 in 10.0 mi WSW 9.2 mph - N/A   Overcast
2:15 AM 32.0 °F 24.8 °F 32.0 °F 100% 29.60 in 10.0 mi WSW 8.1 mph - N/A   Overcast
2:35 AM 32.0 °F 24.2 °F 32.0 °F 100% 29.60 in 10.0 mi WSW 9.2 mph - N/A   Overcast
2:55 AM 32.0 °F 24.8 °F 30.2 °F 93% 29.60 in 7.0 mi WSW 8.1 mph - N/A   Overcast
3:15 AM 32.0 °F 24.8 °F 32.0 °F 100% 29.60 in 5.0 mi WSW 8.1 mph - N/A Snow Light Snow
3:35 AM 32.0 °F 23.6 °F 32.0 °F 100% 29.60 in 10.0 mi WSW 10.4 mph - N/A   Overcast
3:55 AM 32.0 °F 24.8 °F 32.0 °F 100% 29.61 in 10.0 mi West 8.1 mph - N/A   Overcast
4:15 AM 32.0 °F 23.6 °F 30.2 °F 93% 29.61 in 10.0 mi WSW 10.4 mph - N/A   Mostly Cloudy
4:35 AM 32.0 °F 25.6 °F 30.2 °F 93% 29.61 in 10.0 mi WSW 6.9 mph - N/A   Mostly Cloudy
4:55 AM 32.0 °F 24.2 °F 30.2 °F 93% 29.61 in 10.0 mi West 9.2 mph - N/A   Overcast
5:35 AM 32.0 °F 24.2 °F 30.2 °F 93% 29.62 in 10.0 mi WSW 9.2 mph - N/A   Overcast
5:55 AM 32.0 °F 25.6 °F 30.2 °F 93% 29.62 in 10.0 mi WSW 6.9 mph - N/A   Overcast
6:15 AM 32.0 °F 24.8 °F 30.2 °F 93% 29.63 in 3.0 mi WSW 8.1 mph - N/A Snow Light Snow
6:35 AM 32.0 °F 24.8 °F 32.0 °F 100% 29.63 in 3.0 mi SW 8.1 mph - N/A Snow Light Snow
6:55 AM 32.0 °F 24.2 °F 32.0 °F 100% 29.63 in 10.0 mi West 9.2 mph - N/A   Overcast
7:15 AM 32.0 °F 24.2 °F 30.2 °F 93% 29.63 in 10.0 mi WSW 9.2 mph - N/A   Overcast
7:35 AM 32.0 °F 24.2 °F 30.2 °F 93% 29.64 in 10.0 mi WSW 9.2 mph - N/A   Overcast
7:55 AM 32.0 °F 23.6 °F 30.2 °F 93% 29.64 in 10.0 mi West 10.4 mph 16.1 mph N/A   Overcast
8:15 AM 32.0 °F 24.8 °F 30.2 °F 93% 29.65 in 10.0 mi West 8.1 mph - N/A   Overcast
8:35 AM 32.0 °F 24.8 °F 30.2 °F 93% 29.65 in 10.0 mi West 8.1 mph - N/A   Overcast
8:55 AM 32.0 °F 23.6 °F 30.2 °F 93% 29.66 in 10.0 mi West 10.4 mph - N/A   Overcast
9:15 AM 32.0 °F 24.2 °F 30.2 °F 93% 29.66 in 10.0 mi West 9.2 mph - N/A   Overcast
9:35 AM 32.0 °F 22.5 °F 30.2 °F 93% 29.66 in 10.0 mi West 12.7 mph - N/A   Overcast
9:55 AM 32.0 °F 23.6 °F 30.2 °F 93% 29.67 in 10.0 mi West 10.4 mph 19.6 mph N/A   Overcast
10:15 AM 32.0 °F 23.0 °F 30.2 °F 93% 29.68 in 10.0 mi West 11.5 mph - N/A   Overcast
10:35 AM 33.8 °F 24.8 °F 30.2 °F 87% 29.68 in 10.0 mi West 12.7 mph 18.4 mph N/A   Overcast
10:55 AM 33.8 °F 24.8 °F 30.2 °F 87% 29.69 in 10.0 mi WNW 12.7 mph 19.6 mph N/A   Overcast
11:15 AM 33.8 °F 24.8 °F 30.2 °F 87% 29.69 in 10.0 mi West 12.7 mph 18.4 mph N/A   Overcast
11:35 AM 35.6 °F 27.1 °F 32.0 °F 87% 29.69 in 10.0 mi West 12.7 mph - N/A   Overcast
11:55 AM 35.6 °F 27.1 °F 32.0 °F 87% 29.69 in 10.0 mi West 12.7 mph 16.1 mph N/A   Overcast
12:15 PM 35.6 °F 28.0 °F 32.0 °F 87% 29.70 in 10.0 mi West 10.4 mph - N/A   Overcast
12:35 PM 37.4 °F 28.9 °F 32.0 °F 81% 29.70 in 10.0 mi West 13.8 mph 20.7 mph N/A   Overcast
12:55 PM 37.4 °F 29.3 °F 30.2 °F 75% 29.70 in 10.0 mi West 12.7 mph 17.3 mph N/A   Overcast
1:15 PM 37.4 °F 29.8 °F 30.2 °F 75% 29.70 in 10.0 mi West 11.5 mph 21.9 mph N/A   Overcast
1:35 PM 37.4 °F 28.9 °F 30.2 °F 75% 29.71 in 10.0 mi West 13.8 mph 20.7 mph N/A   Overcast
1:55 PM 37.4 °F 28.5 °F 30.2 °F 75% 29.71 in 10.0 mi West 15.0 mph 18.4 mph N/A   Overcast
2:15 PM 37.4 °F 29.8 °F 30.2 °F 75% 29.72 in 10.0 mi West 11.5 mph - N/A   Overcast
2:35 PM 39.2 °F 31.6 °F 30.2 °F 70% 29.72 in 10.0 mi West 12.7 mph 19.6 mph N/A   Overcast
2:55 PM 41.0 °F 33.5 °F 32.0 °F 70% 29.72 in 10.0 mi West 13.8 mph - N/A   Overcast
3:15 PM 41.0 °F 34.3 °F 32.0 °F 70% 29.73 in 10.0 mi WSW 11.5 mph 18.4 mph N/A   Overcast
3:35 PM 39.2 °F 31.2 °F 30.2 °F 70% 29.73 in 10.0 mi West 13.8 mph - N/A   Overcast
3:55 PM 39.2 °F 31.2 °F 30.2 °F 70% 29.73 in 10.0 mi West 13.8 mph 19.6 mph N/A   Overcast
4:15 PM 39.2 °F 33.6 °F 30.2 °F 70% 29.74 in 10.0 mi West 8.1 mph 17.3 mph N/A   Mostly Cloudy
4:35 PM 41.0 °F 34.7 °F 30.2 °F 65% 29.75 in 10.0 mi West 10.4 mph 18.4 mph N/A   Scattered Clouds
4:55 PM 41.0 °F 33.1 °F 30.2 °F 65% 29.76 in 10.0 mi West 15.0 mph - N/A   Mostly Cloudy
5:15 PM 41.0 °F 33.9 °F 28.4 °F 61% 29.76 in 10.0 mi West 12.7 mph 19.6 mph N/A   Scattered Clouds
5:35 PM 41.0 °F 34.7 °F 30.2 °F 65% 29.78 in 10.0 mi West 10.4 mph - N/A   Scattered Clouds
5:55 PM 39.2 °F 32.5 °F 28.4 °F 65% 29.78 in 10.0 mi West 10.4 mph 18.4 mph N/A   Mostly Cloudy
6:15 PM 37.4 °F 31.4 °F 28.4 °F 70% 29.79 in 10.0 mi West 8.1 mph - N/A   Mostly Cloudy
6:35 PM 35.6 °F 29.9 °F 28.4 °F 75% 29.80 in 10.0 mi West 6.9 mph - N/A   Scattered Clouds
6:55 PM 35.6 °F 31.7 °F 30.2 °F 81% 29.80 in 10.0 mi WSW 4.6 mph - N/A   Overcast
7:15 PM 35.6 °F 30.7 °F 30.2 °F 81% 29.81 in 10.0 mi WSW 5.8 mph - N/A   Overcast
7:35 PM 35.6 °F 29.9 °F 30.2 °F 81% 29.82 in 10.0 mi WSW 6.9 mph - N/A   Overcast
7:55 PM 35.6 °F 29.9 °F 30.2 °F 81% 29.83 in 10.0 mi WSW 6.9 mph - N/A   Overcast
8:15 PM 35.6 °F 29.9 °F 30.2 °F 81% 29.83 in 10.0 mi West 6.9 mph - N/A   Overcast
8:35 PM 35.6 °F 28.0 °F 30.2 °F 81% 29.84 in 10.0 mi West 10.4 mph - N/A   Overcast
8:55 PM 35.6 °F 28.6 °F 30.2 °F 81% 29.85 in 10.0 mi West 9.2 mph - N/A   Overcast
9:15 PM 35.6 °F 29.2 °F 30.2 °F 81% 29.85 in 10.0 mi West 8.1 mph - N/A   Overcast
9:35 PM 35.6 °F 28.6 °F 30.2 °F 81% 29.85 in 10.0 mi West 9.2 mph - N/A   Overcast
9:55 PM 35.6 °F 28.6 °F 30.2 °F 81% 29.86 in 10.0 mi West 9.2 mph - N/A   Overcast
10:15 PM 35.6 °F 31.7 °F 30.2 °F 81% 29.87 in 10.0 mi West 4.6 mph - N/A   Overcast
10:35 PM 35.6 °F 29.9 °F 30.2 °F 81% 29.87 in 10.0 mi West 6.9 mph - N/A   Overcast
10:55 PM 35.6 °F 29.2 °F 30.2 °F 81% 29.87 in 10.0 mi West 8.1 mph - N/A   Overcast
11:15 PM 33.8 °F 28.6 °F 30.2 °F 87% 29.87 in 10.0 mi West 5.8 mph - N/A   Mostly Cloudy
11:35 PM 35.6 °F 29.2 °F 32.0 °F 87% 29.87 in 10.0 mi WNW 8.1 mph - N/A   Overcast
11:55 PM 33.8 °F 27.0 °F 30.2 °F 87% 29.88 in 10.0 mi West 8.1 mph - N/A   Mostly Cloudy